Location: Harwich
(41.7160°N, 69.9939°W)
Time: 16:26:22
(UTC+01:00)

S-56A Canister/Altair - All Passes

Search period start: 29 January 2023 00:00
Search period end: 08 February 2023 00:00
Orbit: 639 x 2493 km, 38.9° (Epoch: 28 January)

Date Brightness Start Highest point End Pass type
(mag) Time Alt. Az. Time Alt. Az. Time Alt. Az.
29 Jan - 00:00:42 10° W 00:09:15 38° SSW 00:20:59 10° SSE visible
29 Jan - 02:08:21 10° WSW 02:14:00 15° SW 02:20:19 10° SSW visible
29 Jan - 17:19:25 10° SSW 17:23:42 29° SSE 17:29:14 10° E daylight
29 Jan - 19:21:18 10° WSW 19:26:58 68° S 19:35:29 10° E daylight
29 Jan - 21:24:18 10° W 21:31:19 67° S 21:42:07 10° ESE daylight
29 Jan - 23:27:58 10° W 23:36:06 41° SSW 23:47:34 10° SE visible
30 Jan - 01:34:40 10° WSW 01:40:51 16° SW 01:48:01 10° S visible
30 Jan - 16:47:20 10° SSW 16:51:11 24° SE 16:55:53 10° E daylight
30 Jan - 18:48:56 10° WSW 18:54:15 63° SSE 19:02:01 10° E daylight
30 Jan - 20:51:51 10° W 20:58:23 68° S 21:08:28 10° ESE daylight
30 Jan - 22:55:20 10° W 23:03:01 43° SSW 23:14:06 10° SE daylight
31 Jan - 01:01:17 10° WSW 01:07:43 18° SW 01:15:26 10° S visible
31 Jan - 16:15:21 10° S 16:18:42 20° SE 16:22:34 10° E daylight
31 Jan - 18:16:35 10° WSW 18:21:35 58° SSE 18:28:38 10° E daylight
31 Jan - 20:19:24 10° W 20:25:32 69° S 20:34:52 10° ESE daylight
31 Jan - 22:22:45 10° W 22:29:59 45° SSW 22:40:37 10° SE daylight
01 Feb - 00:28:06 10° WSW 00:34:37 20° SW 00:42:39 10° S visible
01 Feb - 15:43:28 10° S 15:46:12 16° SE 15:49:11 10° ESE daylight
01 Feb - 17:44:15 10° WSW 17:48:57 53° SSE 17:55:22 10° E daylight
01 Feb - 19:47:00 10° W 19:52:42 70° S 20:01:20 10° ESE daylight
01 Feb - 21:50:12 10° W 21:57:01 47° SSW 22:07:07 10° SE daylight
01 Feb - 23:55:05 10° W 00:01:34 21° SW 00:09:45 10° S visible
02 Feb - 15:11:50 10° SSE 15:13:43 12° SE 15:15:39 10° ESE daylight
02 Feb - 17:11:55 10° SW 17:16:23 47° SSE 17:22:10 10° E daylight
02 Feb - 19:14:35 10° W 19:19:58 70° S 19:27:52 10° E daylight
02 Feb - 21:17:43 10° W 21:24:05 49° SSW 21:33:38 10° SE daylight
02 Feb - 23:22:12 10° W 23:28:32 23° SSW 23:36:44 10° SSE visible
03 Feb - 16:39:34 10° SW 16:43:50 41° SSE 16:49:04 10° E daylight
03 Feb - 18:42:11 10° W 18:47:15 69° S 18:54:29 10° E daylight
03 Feb - 20:45:15 10° W 20:51:14 51° SSW 21:00:11 10° SE daylight
03 Feb - 22:49:25 10° W 22:55:33 24° SSW 23:03:40 10° SSE daylight
04 Feb - 16:07:14 10° SW 16:11:19 35° SSE 16:16:02 10° E daylight
04 Feb - 18:09:47 10° W 18:14:36 67° S 18:21:13 10° E daylight
04 Feb - 20:12:48 10° W 20:18:27 52° SSW 20:26:46 10° ESE daylight
04 Feb - 22:16:43 10° W 22:22:36 26° SSW 22:30:32 10° SSE daylight
05 Feb - 15:34:53 10° SW 15:38:48 30° SSE 15:43:05 10° E daylight
05 Feb - 17:37:22 10° WSW 17:41:58 65° S 17:48:02 10° E daylight
05 Feb - 19:40:23 10° W 19:45:41 54° SSW 19:53:24 10° ESE daylight
05 Feb - 21:44:05 10° W 21:49:43 27° SSW 21:57:23 10° SSE daylight
06 Feb - 15:02:32 10° SSW 15:06:18 26° SSE 15:10:11 10° E daylight
06 Feb - 17:04:55 10° WSW 17:09:23 62° S 17:14:58 10° E daylight
06 Feb - 19:07:57 10° W 19:12:59 56° SSW 19:20:06 10° ESE daylight
06 Feb - 21:11:31 10° W 21:16:53 28° SSW 21:24:14 10° SSE daylight
07 Feb - 14:30:10 10° SSW 14:33:47 23° SSE 14:37:20 10° E daylight
07 Feb - 16:32:27 10° WSW 16:36:50 58° S 16:41:59 10° E daylight
07 Feb - 18:35:32 10° W 18:40:20 58° S 18:46:54 10° ESE daylight
07 Feb - 20:38:58 10° W 20:44:05 30° SSW 20:51:05 10° SSE daylight
